Other Public Products
Issued by NWS Grand Forks, ND

Home | Current Version | Previous Version | Graphics & Text | Print | Product List | Glossary On
Versions: 1 2 3 4 5 6 7 8 9 10 11 12 13 14 15 16 17 18 19 20 21 22 23 24 25 26 27 28 29 30 31 32 33 34 35 36 37 38 39 40 41 42 43 44 45 46 47 48 49 50
000
FPUS83 KFGF 200031
OPUFGF
PRAIRIE TO PINES WEATHER ROUNDUP
NATIONAL WEATHER SERVICE EASTERN NORTH DAKOTA/GRAND FORKS ND
700 PM CDT THU OCT 19 2017

 **SATELLITE DATA USED TO AUGMENT SKY COVER AT AUTOMATED STATIONS**
 *****  WEATHER ACROSS EASTERN NORTH DAKOTA  *****

CITY           SKY/WX    TMP DP  RH WIND       PRES   REMARKS
GRAND FORKS    FAIR      62  41  46 S12       29.71S
6HR MIN TEMP:  62; 6HR MAX TEMP:  73;

GRAND FORKS AF FAIR      62  39  43 S13       29.71F
GRAND CITY NWS NOT AVBL
BUXTON           N/A     61  40  45 S6          N/A
DEVILS LAKE    FAIR      65  38  36 S9        29.70S
6HR MIN TEMP:  61; 6HR MAX TEMP:  74;

FARGO          FAIR      63  42  46 S7        29.76S
6HR MIN TEMP:  62; 6HR MAX TEMP:  75;

WAHPETON ARPT  NOT AVBL
$$

 *****  WEATHER ACROSS CENTRAL AND WESTERN NORTH DAKOTA  *****

CITY           SKY/WX    TMP DP  RH WIND       PRES   REMARKS
JAMESTOWN      FAIR      60  41  49 S6        29.74S
6HR MIN TEMP:  60; 6HR MAX TEMP:  74;

BISMARCK       FAIR      62  39  42 S10       29.70F
6HR MIN TEMP:  62; 6HR MAX TEMP:  80;

MINOT          FAIR      69  34  27 S6        29.64F
6HR MIN TEMP:  67; 6HR MAX TEMP:  80;

MINOT AFB      FAIR      62  33  33 S8        29.62F
6HR MIN TEMP:  62; 6HR MAX TEMP:  78;

GARRISON         N/A     65  36  34 CALM      29.67F
6HR MIN TEMP:  64; 6HR MAX TEMP:  78;

WILLISTON      FAIR      69  34  27 S3        29.62F
6HR MIN TEMP:  65; 6HR MAX TEMP:  79;

DICKINSON      FAIR      66  31  27 SE6       29.67F
6HR MIN TEMP:  66; 6HR MAX TEMP:  81;

HETTINGER      FAIR      66  28  24 SE7       29.72F
6HR MIN TEMP:  66; 6HR MAX TEMP:  81;

$$

 *****  OTHER OBSERVATIONS NORTHEAST NORTH DAKOTA  *****

CITY           SKY/WX    TMP DP  RH WIND       PRES   REMARKS
WALHALLA       FAIR     N/A N/A N/A E3        29.67S
LANGDON        FAIR      55  34  44 S13       29.70S
CAVALIER       FAIR      59  37  44 SE5       29.68S
GRAFTON        FAIR      55  39  54 S6        29.72R
CANDO          FAIR      54  36  50 SE9       29.70S
FORT TOTTEN      N/A     68  35  30 S7        29.95S
ROLLA          FAIR      59  32  36 S8        29.68F
RUGBY          FAIR      61  37  41 S7        29.66F
 ***** THE ABOVE OBSERVATIONS ARE NON NWS ARE NOT QUALITY
        CONTROLLED AND MAY MIS-REPORT RAIN FOR SNOW...
$$

 *****  OTHER OBSERVATIONS SOUTHEAST NORTH DAKOTA *****

CITY           SKY/WX    TMP DP  RH WIND       PRES   REMARKS
COOPERSTOWN    FAIR      55  41  58 S10       29.75S
VALLEY CITY    FAIR      57  41  54 S8        29.77S
OAKES          NOT AVBL
GWINNER        CLEAR     55  43  62 CALM      29.78S
SHEYENNE NWR     N/A     60  42  51 S7        29.95S
BUFFALO          N/A     61  36  39 S9          N/A
WYNDMERE       NOT AVBL
 ***** THE ABOVE OBSERVATIONS ARE NON NWS ARE NOT QUALITY
       CONTROLLED AND MAY MIS-REPORT RAIN FOR SNOW...
$$

  *****  WEATHER ACROSS NORTHERN MINNESOTA  *****

CITY           SKY/WX    TMP DP  RH WIND       PRES   REMARKS
FLAG ISLAND    FAIR      52  45  76 S7        29.73S
WARROAD        FAIR      59  41  51 S5        29.75S
ROSEAU         FAIR      55  41  58 S6        29.73F
HALLOCK        FAIR      59  36  41 S12       29.70S
THF RVR FALLS  FAIR      62  39  42 S7        29.76S
6HR MIN TEMP:  62; 6HR MAX TEMP:  70;

HALSTAD          N/A     58  39  50 S10         N/A
FOSSTON        FAIR      57  37  47 S10       29.79F
BAUDETTE       FAIR      60  39  45 S6        29.77R
6HR MIN TEMP:  60; 6HR MAX TEMP:  67;

WASKISH        FAIR      63  39  42 S3        29.80S
CROOKSTON      FAIR      64  37  36 SW13      29.75S
$$
  *****  WEATHER ACROSS CENTRAL AND WEST MINNESOTA  *****

CITY           SKY/WX    TMP DP  RH WIND       PRES   REMARKS
BEMIDJI        FAIR      58  38  47 S5        29.82S
6HR MIN TEMP:  60; 6HR MAX TEMP:  70;

PARK RAPIDS    FAIR      61  39  44 SE8       29.84S
6HR MIN TEMP:  61; 6HR MAX TEMP:  71; 6HR PCP: TRACE;

WADENA         FAIR      59  41  51 SE5       29.85R
DETROIT LAKES  FAIR      61  41  48 S8        29.83S
MOORHEAD       FAIR      63  43  48 S8        29.78S
FERGUS FALLS   FAIR      63  45  51 SE7       29.81S
ELBOW LAKE     FAIR      62  46  56 S10       29.83S
6HR MIN TEMP:  57; 6HR MAX TEMP:  73;

MORRIS MN      FAIR      63  46  55 S10       29.82S
STAPLES        FAIR      63  36  36 SE3       29.86S
WHEATON        FAIR      64  45  48 E7        29.82S
$$
  *****  WEATHER ELSEWHERE ACROSS MINNESOTA  *****

CITY           SKY/WX    TMP DP  RH WIND       PRES   REMARKS
DULUTH         FAIR      59  34  39 S10       29.91S
6HR MIN TEMP:  59; 6HR MAX TEMP:  67;

INTRNTL FALLS  FAIR      54  35  48 SE6       29.80S
6HR MIN TEMP:  54; 6HR MAX TEMP:  67;

ELY            FAIR      57  30  35 S5        29.89R
CLOQUET        FAIR      61  30  31 S8        29.91S
BRAINERD       FAIR      60  36  40 S6        29.88S
6HR MIN TEMP:  60; 6HR MAX TEMP:  70;

HIBBING        FAIR      60  32  34 S3        29.88R
6HR MIN TEMP:  60; 6HR MAX TEMP:  67;

ALEXANDRIA     FAIR      64  44  48 S12       29.86S
6HR MIN TEMP:  63; 6HR MAX TEMP:  73;

SAINT CLOUD    FAIR      62  39  42 S9        29.90F
6HR MIN TEMP:  62; 6HR MAX TEMP:  71;

MINNEAPOLIS    FAIR      68  38  33 S10       29.95S
6HR MIN TEMP:  67; 6HR MAX TEMP:  74;

$$

  *****  WEATHER ACROSS SOUTH DAKOTA  *****

CITY           SKY/WX    TMP DP  RH WIND       PRES   REMARKS
SIOUX FALLS    FAIR      70  52  52 S15       29.88F
6HR MIN TEMP:  69; 6HR MAX TEMP:  75;

BROOKINGS      FAIR      65  50  58 S15       29.86S
WATERTOWN      FAIR      62  50  64 S9        29.83S
6HR MIN TEMP:  62; 6HR MAX TEMP:  72;

HURON          FAIR      70  45  40 S12       29.80S
6HR MIN TEMP:  68; 6HR MAX TEMP:  77;

SISSETON         N/A     66  47  50 S8        29.78S
ABERDEEN       FAIR      59  44  57 SE7       29.77S
6HR MIN TEMP:  59; 6HR MAX TEMP:  75;

MITCHELL       FAIR      70  46  42 S13       29.82F
PIERRE         FAIR      68  39  34 SE7       29.71F
6HR MIN TEMP:  68; 6HR MAX TEMP:  84;

MOBRIDGE       FAIR      63  42  46 SE7       29.71F
RAPID CITY     FAIR      69  20  15 S9        29.75F
6HR MIN TEMP:  69; 6HR MAX TEMP:  86;

$$

  *****  SOME WEATHER IN NEARBY STATES *****

CITY           SKY/WX    TMP DP  RH WIND       PRES   REMARKS
GLASGOW MT     FAIR      72  22  15 CALM      29.55F
6HR MIN TEMP:  72; 6HR MAX TEMP:  81;

GREAT FALLS MT FAIR      67  23  19 S5        29.53F
6HR MIN TEMP:  67; 6HR MAX TEMP:  74;

CHEYENNE WY    FAIR      61  31  32 SW3       29.96F
6HR MIN TEMP:  61; 6HR MAX TEMP:  75;

SCOTTSBLUFF NE FAIR      68  30  24 SE6       29.83F
6HR MIN TEMP:  68; 6HR MAX TEMP:  83;

OMAHA NE       FAIR      68  54  60 SE8       29.97S
6HR MIN TEMP:  68; 6HR MAX TEMP:  78;

DES MOINES IA  FAIR      68  54  60 S7        30.03R
6HR MIN TEMP:  68; 6HR MAX TEMP:  76;

DAVENPORT IA   FAIR      62  49  62 E7        30.12S
6HR MIN TEMP:  61; 6HR MAX TEMP:  74;

CHICAGO IL     MOCLDY    57  28  33 SE8       30.16S
6HR MIN TEMP:  57; 6HR MAX TEMP:  70;

EAU CLAIRE WI  FAIR      60  36  40 S8        30.00S
6HR MIN TEMP:  60; 6HR MAX TEMP:  71;

LA CROSSE WI   FAIR      61  39  44 SE8       30.04F
6HR MIN TEMP:  61; 6HR MAX TEMP:  71;

$$

  *****  SOME NATIONAL WEATHER *****

CITY           SKY/WX    TMP DP  RH WIND       PRES   REMA



USA.gov is the U.S. government's official web portal to all federal, state and local government web resources and services.